TimeEDT,TemperatureF,Dew PointF,Humidity,Sea Level PressureIn,VisibilityMPH,Wind Direction,Wind SpeedMPH,Gust SpeedMPH,PrecipitationIn,Events,Conditions,WindDirDegrees,DateUTC
12:25 AM,62.6,60.8,94,29.71,10.0,WSW,6.9,-,N/A,,Scattered Clouds,240,2013-09-13 04:25:00
12:43 AM,62.6,60.8,94,29.71,10.0,Calm,Calm,-,N/A,,Mostly Cloudy,0,2013-09-13 04:43:00
12:54 AM,63.0,61.0,93,29.70,10.0,Calm,Calm,-,N/A,,Overcast,0,2013-09-13 04:54:00
1:54 AM,63.0,57.9,84,29.71,10.0,North,4.6,-,N/A,,Mostly Cloudy,350,2013-09-13 05:54:00
2:10 AM,62.6,57.2,82,29.71,10.0,North,8.1,-,N/A,,Overcast,360,2013-09-13 06:10:00
2:54 AM,63.0,57.0,81,29.71,10.0,North,9.2,-,N/A,,Overcast,360,2013-09-13 06:54:00
3:46 AM,62.6,55.4,77,29.72,10.0,North,9.2,-,N/A,,Overcast,10,2013-09-13 07:46:00
3:54 AM,62.1,55.9,80,29.71,10.0,North,9.2,-,N/A,,Overcast,10,2013-09-13 07:54:00
4:18 AM,62.6,55.4,77,29.73,10.0,North,11.5,-,N/A,,Overcast,360,2013-09-13 08:18:00
4:54 AM,61.0,55.0,81,29.73,10.0,NNE,8.1,-,N/A,,Overcast,20,2013-09-13 08:54:00
5:14 AM,60.8,55.4,82,29.74,10.0,North,9.2,-,0.00,Rain,Light Rain,10,2013-09-13 09:14:00
5:32 AM,60.8,55.4,82,29.74,8.0,North,10.4,-,0.01,Rain,Light Rain,360,2013-09-13 09:32:00
5:54 AM,59.0,55.9,90,29.75,10.0,North,9.2,-,0.01,Rain,Light Rain,10,2013-09-13 09:54:00
6:09 AM,57.2,55.4,94,29.75,7.0,North,9.2,18.4,0.00,Rain,Light Rain,350,2013-09-13 10:09:00
6:54 AM,57.0,54.0,89,29.77,4.0,North,9.2,-,0.01,Rain,Light Rain,360,2013-09-13 10:54:00
7:15 AM,57.2,53.6,88,29.78,10.0,North,9.2,17.3,0.00,,Overcast,360,2013-09-13 11:15:00
7:54 AM,57.0,53.1,87,29.78,10.0,NNE,10.4,-,0.00,,Overcast,20,2013-09-13 11:54:00
8:27 AM,55.4,51.8,88,29.80,10.0,North,12.7,-,N/A,,Overcast,10,2013-09-13 12:27:00
8:54 AM,55.9,51.1,84,29.81,10.0,North,10.4,18.4,N/A,,Overcast,360,2013-09-13 12:54:00
9:54 AM,55.0,51.1,86,29.83,6.0,North,9.2,-,0.00,Rain,Light Rain,350,2013-09-13 13:54:00
10:54 AM,54.0,51.1,90,29.84,3.0,North,9.2,-,0.01,Rain,Light Rain,360,2013-09-13 14:54:00
11:08 AM,53.6,51.8,94,29.85,2.5,NNW,6.9,-,0.00,Rain,Light Rain,340,2013-09-13 15:08:00
11:11 AM,53.6,51.8,94,29.85,3.0,NNW,8.1,-,0.00,Rain,Light Rain,340,2013-09-13 15:11:00
11:18 AM,53.6,51.8,94,29.85,3.0,NNW,9.2,-,0.00,Rain,Light Rain,340,2013-09-13 15:18:00
11:22 AM,53.6,51.8,94,29.85,2.5,NNW,8.1,-,0.00,Rain,Light Rain,340,2013-09-13 15:22:00
11:28 AM,53.6,51.8,94,29.85,3.0,North,9.2,-,0.00,Rain,Light Rain,350,2013-09-13 15:28:00
11:38 AM,53.6,51.8,94,29.85,3.0,North,9.2,-,0.00,Rain,Light Rain,350,2013-09-13 15:38:00
11:54 AM,54.0,51.1,90,29.86,3.0,North,10.4,-,0.00,Rain,Light Rain,10,2013-09-13 15:54:00
12:19 PM,53.6,51.8,94,29.86,5.0,North,11.5,-,0.00,Rain,Light Rain,350,2013-09-13 16:19:00
12:27 PM,53.6,51.8,94,29.86,4.0,North,10.4,-,0.00,Rain,Light Rain,350,2013-09-13 16:27:00
12:36 PM,53.6,51.8,94,29.86,4.0,North,9.2,-,0.00,Rain,Light Rain,360,2013-09-13 16:36:00
12:54 PM,54.0,50.0,86,29.86,8.0,North,10.4,-,0.00,,Overcast,360,2013-09-13 16:54:00
1:54 PM,54.0,50.0,86,29.87,9.0,NNW,5.8,-,0.00,,Overcast,340,2013-09-13 17:54:00
2:54 PM,55.0,50.0,83,29.87,10.0,NNW,5.8,-,0.00,,Overcast,340,2013-09-13 18:54:00
3:54 PM,54.0,50.0,86,29.88,5.0,Variable,5.8,-,0.01,Rain,Light Rain,0,2013-09-13 19:54:00
4:27 PM,53.6,50.0,88,29.89,5.0,North,6.9,-,0.00,Rain,Light Rain,350,2013-09-13 20:27:00
4:47 PM,53.6,50.0,88,29.90,3.0,North,8.1,-,0.01,Rain,Light Rain,350,2013-09-13 20:47:00
4:54 PM,53.1,50.0,89,29.90,3.0,NNW,6.9,-,0.01,Rain,Light Rain,340,2013-09-13 20:54:00
5:54 PM,53.1,50.0,89,29.91,10.0,NNW,4.6,-,0.01,,Overcast,330,2013-09-13 21:54:00
6:54 PM,53.1,50.0,89,29.93,5.0,Calm,Calm,-,0.01,Rain,Light Rain,0,2013-09-13 22:54:00
7:54 PM,52.0,48.9,89,29.95,10.0,Calm,Calm,-,0.01,Rain,Light Rain,0,2013-09-13 23:54:00
8:45 PM,51.8,48.2,88,29.97,3.0,North,3.5,-,0.00,Rain,Light Rain,10,2013-09-14 00:45:00
8:54 PM,51.1,48.9,92,29.98,4.0,North,5.8,-,0.01,Rain,Light Rain,360,2013-09-14 00:54:00
9:20 PM,51.8,48.2,88,29.97,10.0,North,4.6,-,0.00,,Overcast,10,2013-09-14 01:20:00
9:36 PM,51.8,48.2,88,29.98,9.0,Calm,Calm,-,0.00,Rain,Light Rain,0,2013-09-14 01:36:00
9:54 PM,51.1,48.0,89,29.98,10.0,NNE,3.5,-,0.00,,Overcast,20,2013-09-14 01:54:00
10:54 PM,51.1,46.9,86,29.99,10.0,North,3.5,-,0.00,,Overcast,360,2013-09-14 02:54:00
11:54 PM,51.1,46.0,83,29.98,10.0,NNW,4.6,-,N/A,,Overcast,340,2013-09-14 03:54:00